When you browse on this site, cookies collect data to enhance your experience and personalize the content and advertising you see.
Visit our Privacy Policy to learn more. By continuing to use the site, you agree to this use of cookies and data.

Météo par heure à Starobeshevo

Ce jour, 26 Septembre, Samedi

Heure Température Précipitation Vent Pression Humidité
00:00 +18°C° 0 mm 4 m/s 749 mmHg 42%
01:00 +18°C° 0 mm 4 m/s 749 mmHg 43%
02:00 +18°C° 0 mm 4 m/s 749 mmHg 43%
03:00 +17°C° 0 mm 4 m/s 749 mmHg 44%
04:00 +17°C° 0 mm 4 m/s 749 mmHg 45%
05:00 +17°C° 0 mm 4 m/s 749 mmHg 45%
06:00 +16°C° 0 mm 5 m/s 749 mmHg 45%
07:00 +17°C° 0 mm 5 m/s 749 mmHg 41%
08:00 +19°C° 0 mm 6 m/s 749 mmHg 38%
09:00 +21°C° 0 mm 7 m/s 749 mmHg 34%
10:00 +23°C° 0 mm 7 m/s 749 mmHg 29%
11:00 +26°C° 0 mm 8 m/s 749 mmHg 25%
12:00 +28°C° 0 mm 8 m/s 749 mmHg 20%
13:00 +29°C° 0 mm 8 m/s 749 mmHg 19%
14:00 +31°C° 0 mm 8 m/s 749 mmHg 17%
15:00 +31°C° 0 mm 8 m/s 748 mmHg 16%
16:00 +29°C° 0 mm 7 m/s 748 mmHg 18%
17:00 +28°C° 0 mm 6 m/s 748 mmHg 21%
18:00 +27°C° 0 mm 5 m/s 748 mmHg 24%
19:00 +26°C° 0 mm 6 m/s 749 mmHg 26%
20:00 +24°C° 0 mm 7 m/s 749 mmHg 29%
21:00 +23°C° 0 mm 8 m/s 749 mmHg 32%
22:00 +22°C° 0 mm 8 m/s 749 mmHg 34%
23:00 +21°C° 0 mm 8 m/s 749 mmHg 36%

Demain, 27 Septembre, Dimanche

Heure Température Précipitation Vent Pression Humidité
00:00 +21°C° 0 mm 7 m/s 749 mmHg 38%
01:00 +20°C° 0 mm 7 m/s 750 mmHg 41%
02:00 +18°C° 0 mm 7 m/s 750 mmHg 44%
03:00 +17°C° 0 mm 7 m/s 750 mmHg 47%
04:00 +16°C° 0 mm 7 m/s 750 mmHg 49%
05:00 +16°C° 0 mm 7 m/s 750 mmHg 51%
06:00 +15°C° 0 mm 8 m/s 750 mmHg 52%
07:00 +16°C° 0 mm 8 m/s 751 mmHg 51%
08:00 +17°C° 0 mm 8 m/s 751 mmHg 50%
09:00 +17°C° 0 mm 9 m/s 751 mmHg 49%
10:00 +19°C° 0 mm 9 m/s 751 mmHg 45%
11:00 +22°C° 0 mm 9 m/s 751 mmHg 41%
12:00 +26°C° 0 mm 9 m/s 751 mmHg 38%
13:00 +27°C° 0 mm 8 m/s 751 mmHg 37%
14:00 +28°C° 0 mm 8 m/s 751 mmHg 36%
15:00 +28°C° 0 mm 7 m/s 751 mmHg 35%
16:00 +28°C° 0.1 mm 6 m/s 751 mmHg 36%
17:00 +27°C° 0.1 mm 6 m/s 751 mmHg 36%
18:00 +27°C° 0.1 mm 5 m/s 751 mmHg 37%
19:00 +26°C° 0.2 mm 5 m/s 752 mmHg 39%
20:00 +24°C° 0.2 mm 6 m/s 752 mmHg 41%
21:00 +23°C° 0.2 mm 6 m/s 752 mmHg 43%
22:00 +22°C° 0.2 mm 6 m/s 752 mmHg 46%
23:00 +21°C° 0.2 mm 6 m/s 753 mmHg 49%

Après-demain, 28 Septembre, Lundi

Heure Température Précipitation Vent Pression Humidité
00:00 +20°C° 0.2 mm 5 m/s 753 mmHg 51%
01:00 +19°C° 0 mm 5 m/s 753 mmHg 55%
02:00 +19°C° 0 mm 5 m/s 753 mmHg 58%
03:00 +17°C° 0 mm 5 m/s 753 mmHg 62%
04:00 +16°C° 0 mm 5 m/s 754 mmHg 64%
05:00 +15°C° 0 mm 5 m/s 754 mmHg 66%
06:00 +15°C° 0 mm 5 m/s 754 mmHg 68%
07:00 +16°C° 0 mm 5 m/s 755 mmHg 63%
08:00 +17°C° 0 mm 5 m/s 755 mmHg 58%
09:00 +17°C° 0 mm 5 m/s 755 mmHg 53%
10:00 +20°C° 0 mm 5 m/s 755 mmHg 48%
11:00 +22°C° 0 mm 5 m/s 755 mmHg 43%
12:00 +25°C° 0 mm 5 m/s 755 mmHg 38%
13:00 +26°C° 0 mm 5 m/s 755 mmHg 36%
14:00 +27°C° 0 mm 5 m/s 755 mmHg 33%
15:00 +28°C° 0 mm 5 m/s 755 mmHg 31%
16:00 +27°C° 0 mm 4 m/s 755 mmHg 32%
17:00 +26°C° 0 mm 4 m/s 755 mmHg 34%
18:00 +25°C° 0 mm 3 m/s 755 mmHg 35%
19:00 +23°C° 0 mm 4 m/s 755 mmHg 36%
20:00 +22°C° 0 mm 5 m/s 755 mmHg 36%
21:00 +22°C° 0 mm 7 m/s 755 mmHg 36%
22:00 +21°C° 0 mm 6 m/s 755 mmHg 39%
23:00 +20°C° 0 mm 6 m/s 755 mmHg 41%

29 Septembre, Mardi

Heure Température Précipitation Vent Pression Humidité
00:00 +20°C° 0 mm 6 m/s 755 mmHg 44%
01:00 +19°C° 0 mm 6 m/s 755 mmHg 47%
02:00 +17°C° 0 mm 6 m/s 755 mmHg 51%
03:00 +16°C° 0 mm 6 m/s 755 mmHg 54%
04:00 +16°C° 0 mm 6 m/s 754 mmHg 57%
05:00 +15°C° 0 mm 7 m/s 754 mmHg 60%
06:00 +14°C° 0 mm 7 m/s 754 mmHg 63%
07:00 +15°C° 0 mm 7 m/s 754 mmHg 63%
08:00 +15°C° 0 mm 7 m/s 754 mmHg 63%
09:00 +16°C° 0 mm 8 m/s 754 mmHg 62%
10:00 +17°C° 0 mm 8 m/s 754 mmHg 56%
11:00 +18°C° 0 mm 8 m/s 753 mmHg 49%
12:00 +21°C° 0 mm 8 m/s 753 mmHg 43%
13:00 +22°C° 0.1 mm 8 m/s 753 mmHg 40%
14:00 +23°C° 0.1 mm 8 m/s 752 mmHg 36%
15:00 +23°C° 0.1 mm 8 m/s 752 mmHg 33%
16:00 +23°C° 0 mm 8 m/s 751 mmHg 33%
17:00 +23°C° 0 mm 7 m/s 751 mmHg 33%
18:00 +23°C° 0 mm 7 m/s 751 mmHg 33%
19:00 +23°C° 0 mm 7 m/s 751 mmHg 32%
20:00 +22°C° 0 mm 8 m/s 750 mmHg 32%
21:00 +22°C° 0 mm 9 m/s 750 mmHg 32%
22:00 +21°C° 0 mm 9 m/s 750 mmHg 35%
23:00 +21°C° 0 mm 9 m/s 749 mmHg 38%

30 Septembre, Mercredi

Heure Température Précipitation Vent Pression Humidité
00:00 +19°C° 0 mm 9 m/s 749 mmHg 42%
01:00 +18°C° 0 mm 9 m/s 749 mmHg 43%
02:00 +17°C° 0 mm 8 m/s 749 mmHg 45%
03:00 +17°C° 0 mm 8 m/s 749 mmHg 47%
04:00 +16°C° 0 mm 8 m/s 749 mmHg 50%
05:00 +16°C° 0 mm 8 m/s 749 mmHg 52%
06:00 +15°C° 0 mm 8 m/s 749 mmHg 55%
07:00 +15°C° 0 mm 8 m/s 748 mmHg 55%
08:00 +16°C° 0 mm 8 m/s 748 mmHg 54%
09:00 +16°C° 0 mm 8 m/s 748 mmHg 54%
10:00 +16°C° 0.1 mm 8 m/s 748 mmHg 52%
11:00 +17°C° 0.1 mm 8 m/s 748 mmHg 51%
12:00 +18°C° 0.1 mm 8 m/s 748 mmHg 50%
13:00 +20°C° 0.2 mm 8 m/s 748 mmHg 48%
14:00 +21°C° 0.2 mm 8 m/s 747 mmHg 45%
15:00 +21°C° 0.2 mm 9 m/s 747 mmHg 43%
16:00 +21°C° 0.2 mm 8 m/s 747 mmHg 42%
17:00 +21°C° 0.2 mm 8 m/s 746 mmHg 42%
18:00 +21°C° 0.2 mm 7 m/s 746 mmHg 41%
19:00 +21°C° 0.1 mm 8 m/s 746 mmHg 40%
20:00 +21°C° 0.1 mm 8 m/s 746 mmHg 39%
21:00 +21°C° 0.1 mm 8 m/s 746 mmHg 37%
22:00 +19°C° 0.1 mm 9 m/s 746 mmHg 44%
23:00 +18°C° 0.1 mm 10 m/s 747 mmHg 50%

1 Octobre, Jeudi

Heure Température Précipitation Vent Pression Humidité
00:00 +16°C° 0.1 mm 10 m/s 747 mmHg 57%
01:00 +16°C° 0.7 mm 10 m/s 747 mmHg 59%
02:00 +15°C° 0.7 mm 9 m/s 747 mmHg 62%
03:00 +15°C° 0.7 mm 9 m/s 747 mmHg 64%
04:00 +13°C° 0.4 mm 8 m/s 747 mmHg 66%
05:00 +13°C° 0.4 mm 8 m/s 748 mmHg 68%
06:00 +14°C° 0.4 mm 7 m/s 748 mmHg 70%
07:00 +13°C° 0 mm 8 m/s 748 mmHg 70%
08:00 +13°C° 0 mm 8 m/s 749 mmHg 71%
09:00 +13°C° 0 mm 8 m/s 749 mmHg 71%
10:00 +13°C° 0.3 mm 8 m/s 749 mmHg 72%
11:00 +14°C° 0.3 mm 7 m/s 749 mmHg 73%
12:00 +14°C° 0.3 mm 7 m/s 749 mmHg 74%
13:00 +15°C° 0.3 mm 6 m/s 750 mmHg 72%
14:00 +15°C° 0.3 mm 6 m/s 750 mmHg 70%
15:00 +16°C° 0.3 mm 5 m/s 750 mmHg 68%
16:00 +16°C° 0 mm 5 m/s 750 mmHg 67%
17:00 +17°C° 0 mm 4 m/s 750 mmHg 67%
18:00 +17°C° 0 mm 4 m/s 750 mmHg 66%
19:00 +17°C° 0 mm 4 m/s 750 mmHg 68%
20:00 +16°C° 0 mm 3 m/s 750 mmHg 71%
21:00 +16°C° 0 mm 3 m/s 750 mmHg 73%
22:00 +15°C° 0 mm 4 m/s 750 mmHg 72%
23:00 +15°C° 0 mm 4 m/s 750 mmHg 70%
Voir plus